Year,Month,Day,Hour,Minute,Value (Times are PST for temperature in C)
2017,06,25,00,00,17.80
2017,06,25,00,01,17.80
2017,06,25,00,02,17.80
2017,06,25,00,03,17.80
2017,06,25,00,04,17.80
2017,06,25,00,05,17.80
2017,06,25,00,06,17.80
2017,06,25,00,07,17.80
2017,06,25,00,08,17.70
2017,06,25,00,09,17.70
2017,06,25,00,10,17.70
2017,06,25,00,11,17.70
2017,06,25,00,12,17.70
2017,06,25,00,13,17.70
2017,06,25,00,14,17.70
2017,06,25,00,15,17.60
2017,06,25,00,16,17.60
2017,06,25,00,17,17.60
2017,06,25,00,18,17.60
2017,06,25,00,19,17.60
2017,06,25,00,20,17.60
2017,06,25,00,21,17.60
2017,06,25,00,22,17.50
2017,06,25,00,23,17.50
2017,06,25,00,24,17.50
2017,06,25,00,25,17.50
2017,06,25,00,26,17.40
2017,06,25,00,27,17.40
2017,06,25,00,28,17.40
2017,06,25,00,29,17.40
2017,06,25,00,30,17.30
2017,06,25,00,31,17.30
2017,06,25,00,32,17.20
2017,06,25,00,33,17.20
2017,06,25,00,34,17.10
2017,06,25,00,35,17.00
2017,06,25,00,36,16.90
2017,06,25,00,37,16.80
2017,06,25,00,38,16.80
2017,06,25,00,39,16.80
2017,06,25,00,40,16.70
2017,06,25,00,41,16.60
2017,06,25,00,42,16.60
2017,06,25,00,43,16.50
2017,06,25,00,44,16.50
2017,06,25,00,45,16.50
2017,06,25,00,46,16.40
2017,06,25,00,47,16.40
2017,06,25,00,48,16.40
2017,06,25,00,49,16.40
2017,06,25,00,50,16.40
2017,06,25,00,51,16.40
2017,06,25,00,52,16.40
2017,06,25,00,53,16.40
2017,06,25,00,54,16.40
2017,06,25,00,55,16.40
2017,06,25,00,56,16.40
2017,06,25,00,57,16.40
2017,06,25,00,58,16.40
2017,06,25,00,59,16.40
2017,06,25,01,00,16.40
2017,06,25,01,01,16.30
2017,06,25,01,02,16.30
2017,06,25,01,03,16.30
2017,06,25,01,04,16.30
2017,06,25,01,05,16.30
2017,06,25,01,06,16.30
2017,06,25,01,07,16.30
2017,06,25,01,08,16.30
2017,06,25,01,09,16.30
2017,06,25,01,10,16.30
2017,06,25,01,11,16.30
2017,06,25,01,12,16.20
2017,06,25,01,13,16.20
2017,06,25,01,14,16.20
2017,06,25,01,15,16.20
2017,06,25,01,16,16.20
2017,06,25,01,17,16.20
2017,06,25,01,18,16.20
2017,06,25,01,19,16.20
2017,06,25,01,20,16.20
2017,06,25,01,21,16.20
2017,06,25,01,22,16.20
2017,06,25,01,23,16.20
2017,06,25,01,24,16.20
2017,06,25,01,25,16.20
2017,06,25,01,26,16.20
2017,06,25,01,27,16.20
2017,06,25,01,28,16.20
2017,06,25,01,29,16.20
2017,06,25,01,30,16.20
2017,06,25,01,31,16.30
2017,06,25,01,32,16.30
2017,06,25,01,33,16.30
2017,06,25,01,34,16.30
2017,06,25,01,35,16.30
2017,06,25,01,36,16.30
2017,06,25,01,37,16.30
2017,06,25,01,38,16.30
2017,06,25,01,39,16.30
2017,06,25,01,40,16.30
2017,06,25,01,41,16.30
2017,06,25,01,42,16.30
2017,06,25,01,43,16.30
2017,06,25,01,44,16.30
2017,06,25,01,45,16.30
2017,06,25,01,46,16.30
2017,06,25,01,47,16.30
2017,06,25,01,48,16.30
2017,06,25,01,49,16.30
2017,06,25,01,50,16.30
2017,06,25,01,51,16.30
2017,06,25,01,52,16.30
2017,06,25,01,53,16.30
2017,06,25,01,54,16.20
2017,06,25,01,55,16.20
2017,06,25,01,56,16.20
2017,06,25,01,57,16.20
2017,06,25,01,58,16.10
2017,06,25,01,59,16.10
2017,06,25,02,00,16.10
2017,06,25,02,01,16.10
2017,06,25,02,02,16.10
2017,06,25,02,03,16.10
2017,06,25,02,04,16.00
2017,06,25,02,05,15.90
2017,06,25,02,06,15.90
2017,06,25,02,07,15.90
2017,06,25,02,08,15.90
2017,06,25,02,09,15.80
2017,06,25,02,10,15.80
2017,06,25,02,11,15.70
2017,06,25,02,12,15.70
2017,06,25,02,13,15.70
2017,06,25,02,14,15.60
2017,06,25,02,15,15.60
2017,06,25,02,16,15.60
2017,06,25,02,17,15.60
2017,06,25,02,18,15.50
2017,06,25,02,19,15.50
2017,06,25,02,20,15.50
2017,06,25,02,21,15.40
2017,06,25,02,22,15.40
2017,06,25,02,23,15.40
2017,06,25,02,24,15.40
2017,06,25,02,25,15.40
2017,06,25,02,26,15.40
2017,06,25,02,27,15.30
2017,06,25,02,28,15.30
2017,06,25,02,29,15.30
2017,06,25,02,30,15.30
2017,06,25,02,31,15.30
2017,06,25,02,32,15.30
2017,06,25,02,33,15.30
2017,06,25,02,34,15.30
2017,06,25,02,35,15.30
2017,06,25,02,36,15.30
2017,06,25,02,37,15.30
2017,06,25,02,38,15.30
2017,06,25,02,39,15.30
2017,06,25,02,40,15.20
2017,06,25,02,41,15.20
2017,06,25,02,42,15.20
2017,06,25,02,43,15.20
2017,06,25,02,44,15.10
2017,06,25,02,45,15.10
2017,06,25,02,46,15.10
2017,06,25,02,47,15.10
2017,06,25,02,48,15.00
2017,06,25,02,49,15.00
2017,06,25,02,50,15.00
2017,06,25,02,51,15.00
2017,06,25,02,52,15.00
2017,06,25,02,53,15.00
2017,06,25,02,54,15.00
2017,06,25,02,55,15.00
2017,06,25,02,56,15.00
2017,06,25,02,57,15.00
2017,06,25,02,58,15.00
2017,06,25,02,59,14.90
2017,06,25,03,00,14.90
2017,06,25,03,01,14.90
2017,06,25,03,02,14.90
2017,06,25,03,03,14.90
2017,06,25,03,04,14.80
2017,06,25,03,05,14.80
2017,06,25,03,06,14.80
2017,06,25,03,07,14.80
2017,06,25,03,08,14.80
2017,06,25,03,09,14.80
2017,06,25,03,10,14.80
2017,06,25,03,11,14.80
2017,06,25,03,12,14.80
2017,06,25,03,13,14.80
2017,06,25,03,14,14.80
2017,06,25,03,15,14.70
2017,06,25,03,16,14.70
2017,06,25,03,17,14.70
2017,06,25,03,18,14.70
2017,06,25,03,19,14.70
2017,06,25,03,20,14.70
2017,06,25,03,21,14.60
2017,06,25,03,22,14.60
2017,06,25,03,23,14.60
2017,06,25,03,24,14.60
2017,06,25,03,25,14.60
2017,06,25,03,26,14.50
2017,06,25,03,27,14.50
2017,06,25,03,28,14.50
2017,06,25,03,29,14.50
2017,06,25,03,30,14.50
2017,06,25,03,31,14.50
2017,06,25,03,32,14.50
2017,06,25,03,33,14.50
2017,06,25,03,34,14.40
2017,06,25,03,35,14.40
2017,06,25,03,36,14.40
2017,06,25,03,37,14.40
2017,06,25,03,38,14.40
2017,06,25,03,39,14.40
2017,06,25,03,40,14.40
2017,06,25,03,41,14.40
2017,06,25,03,42,14.30
2017,06,25,03,43,14.30
2017,06,25,03,44,14.30
2017,06,25,03,45,14.30
2017,06,25,03,46,14.30
2017,06,25,03,47,14.30
2017,06,25,03,48,14.30
2017,06,25,03,49,14.30
2017,06,25,03,50,14.30
2017,06,25,03,51,14.30
2017,06,25,03,52,14.30
2017,06,25,03,53,14.30
2017,06,25,03,54,14.30
2017,06,25,03,55,14.30
2017,06,25,03,56,14.30
2017,06,25,03,57,14.20
2017,06,25,03,58,14.20
2017,06,25,03,59,14.20
2017,06,25,04,00,14.20
2017,06,25,04,01,14.20
2017,06,25,04,02,14.20
2017,06,25,04,03,14.20
2017,06,25,04,04,14.20
2017,06,25,04,05,14.20
2017,06,25,04,06,14.20
2017,06,25,04,07,14.20
2017,06,25,04,08,14.20
2017,06,25,04,09,14.20
2017,06,25,04,10,14.10
2017,06,25,04,11,14.10
2017,06,25,04,12,14.10
2017,06,25,04,13,14.20
2017,06,25,04,14,14.20
2017,06,25,04,15,14.20
2017,06,25,04,16,14.20
2017,06,25,04,17,14.10
2017,06,25,04,18,14.10
2017,06,25,04,19,14.10
2017,06,25,04,20,14.10
2017,06,25,04,21,14.10
2017,06,25,04,22,14.10
2017,06,25,04,23,14.10
2017,06,25,04,24,14.00
2017,06,25,04,25,14.00
2017,06,25,04,26,14.00
2017,06,25,04,27,14.00
2017,06,25,04,28,14.00
2017,06,25,04,29,14.00
2017,06,25,04,30,14.00
2017,06,25,04,31,14.00
2017,06,25,04,32,14.00
2017,06,25,04,33,14.00
2017,06,25,04,34,14.00
2017,06,25,04,35,14.00
2017,06,25,04,36,14.00
2017,06,25,04,37,14.00
2017,06,25,04,38,14.00
2017,06,25,04,39,14.00
2017,06,25,04,40,14.00
2017,06,25,04,41,14.00
2017,06,25,04,42,14.00
2017,06,25,04,43,13.90
2017,06,25,04,44,13.90
2017,06,25,04,45,13.90
2017,06,25,04,46,13.90
2017,06,25,04,47,13.90
2017,06,25,04,48,13.90
2017,06,25,04,49,13.90
2017,06,25,04,50,13.90
2017,06,25,04,51,13.90
2017,06,25,04,52,13.90
2017,06,25,04,53,13.80
2017,06,25,04,54,13.80
2017,06,25,04,55,13.80
2017,06,25,04,56,13.80
2017,06,25,04,57,13.80
2017,06,25,04,58,13.80
2017,06,25,04,59,13.80
2017,06,25,05,00,13.80
2017,06,25,05,01,13.80
2017,06,25,05,02,13.80
2017,06,25,05,03,13.80
2017,06,25,05,04,13.80
2017,06,25,05,05,13.80
2017,06,25,05,06,13.80
2017,06,25,05,07,13.80
2017,06,25,05,08,13.80
2017,06,25,05,09,13.80
2017,06,25,05,10,13.80
2017,06,25,05,11,13.80
2017,06,25,05,12,13.80
2017,06,25,05,13,13.80
2017,06,25,05,14,13.80
2017,06,25,05,15,13.80
2017,06,25,05,16,13.70
2017,06,25,05,17,13.70
2017,06,25,05,18,13.70
2017,06,25,05,19,13.70
2017,06,25,05,20,13.70
2017,06,25,05,21,13.70
2017,06,25,05,22,13.70
2017,06,25,05,23,13.70
2017,06,25,05,24,13.70
2017,06,25,05,25,13.70
2017,06,25,05,26,13.70
2017,06,25,05,27,13.70
2017,06,25,05,28,13.60
2017,06,25,05,29,13.60
2017,06,25,05,30,13.60
2017,06,25,05,31,13.60
2017,06,25,05,32,13.60
2017,06,25,05,33,13.60
2017,06,25,05,34,13.60
2017,06,25,05,35,13.60
2017,06,25,05,36,13.60
2017,06,25,05,37,13.60
2017,06,25,05,38,13.60
2017,06,25,05,39,13.60
2017,06,25,05,40,13.60
2017,06,25,05,41,13.50
2017,06,25,05,42,13.50
2017,06,25,05,43,13.50
2017,06,25,05,44,13.50
2017,06,25,05,45,13.60
2017,06,25,05,46,13.60
2017,06,25,05,47,13.60
2017,06,25,05,48,13.60
2017,06,25,05,49,13.60
2017,06,25,05,50,13.60
2017,06,25,05,51,13.60
2017,06,25,05,52,13.60
2017,06,25,05,53,13.60
2017,06,25,05,54,13.60
2017,06,25,05,55,13.60
2017,06,25,05,56,13.60
2017,06,25,05,57,13.60
2017,06,25,05,58,13.60
2017,06,25,05,59,13.60
2017,06,25,06,00,13.70
2017,06,25,06,01,13.70
2017,06,25,06,02,13.70
2017,06,25,06,03,13.70
2017,06,25,06,04,13.70
2017,06,25,06,05,13.70
2017,06,25,06,06,13.80
2017,06,25,06,07,13.80
2017,06,25,06,08,13.80
2017,06,25,06,09,13.80
2017,06,25,06,10,13.80
2017,06,25,06,11,13.80
2017,06,25,06,12,13.80
2017,06,25,06,13,13.90
2017,06,25,06,14,13.90
2017,06,25,06,15,13.90
2017,06,25,06,16,13.90
2017,06,25,06,17,14.00
2017,06,25,06,18,14.00
2017,06,25,06,19,14.10
2017,06,25,06,20,14.10
2017,06,25,06,21,14.10
2017,06,25,06,22,14.20
2017,06,25,06,23,14.20
2017,06,25,06,24,14.30
2017,06,25,06,25,14.30
2017,06,25,06,26,14.40
2017,06,25,06,27,14.40
2017,06,25,06,28,14.50
2017,06,25,06,29,14.50
2017,06,25,06,30,14.60
2017,06,25,06,31,14.60
2017,06,25,06,32,14.60
2017,06,25,06,33,14.60
2017,06,25,06,34,14.70
2017,06,25,06,35,14.70
2017,06,25,06,36,14.70
2017,06,25,06,37,14.80
2017,06,25,06,38,14.80
2017,06,25,06,39,14.90
2017,06,25,06,40,14.90
2017,06,25,06,41,15.00
2017,06,25,06,42,15.10
2017,06,25,06,43,15.10
2017,06,25,06,44,15.20
2017,06,25,06,45,15.20
2017,06,25,06,46,15.30
2017,06,25,06,47,15.40
2017,06,25,06,48,15.40
2017,06,25,06,49,15.50
2017,06,25,06,50,15.60
2017,06,25,06,51,15.70
2017,06,25,06,52,15.80
2017,06,25,06,53,15.90
2017,06,25,06,54,16.00
2017,06,25,06,55,16.10
2017,06,25,06,56,16.20
2017,06,25,06,57,16.30
2017,06,25,06,58,16.40
2017,06,25,06,59,16.50
2017,06,25,07,00,16.60
2017,06,25,07,01,16.70
2017,06,25,07,02,16.80
2017,06,25,07,03,16.90
2017,06,25,07,04,17.00
2017,06,25,07,05,17.00
2017,06,25,07,06,17.10
2017,06,25,07,07,17.20
2017,06,25,07,08,17.30
2017,06,25,07,09,17.30
2017,06,25,07,10,17.40
2017,06,25,07,11,17.40
2017,06,25,07,12,17.50
2017,06,25,07,13,17.50
2017,06,25,07,14,17.50
2017,06,25,07,15,17.60
2017,06,25,07,16,17.60
2017,06,25,07,17,17.60
2017,06,25,07,18,17.60
2017,06,25,07,19,17.60
2017,06,25,07,20,17.60
2017,06,25,07,21,17.60
2017,06,25,07,22,17.60
2017,06,25,07,23,17.60
2017,06,25,07,24,17.70
2017,06,25,07,25,17.70
2017,06,25,07,26,17.70
2017,06,25,07,27,17.80
2017,06,25,07,28,17.80
2017,06,25,07,29,17.80
2017,06,25,07,30,17.90
2017,06,25,07,31,17.90
2017,06,25,07,32,17.90
2017,06,25,07,33,18.00
2017,06,25,07,34,18.10
2017,06,25,07,35,18.10
2017,06,25,07,36,18.20
2017,06,25,07,37,18.20
2017,06,25,07,38,18.30
2017,06,25,07,39,18.30
2017,06,25,07,40,18.30
2017,06,25,07,41,18.30
2017,06,25,07,42,18.30
2017,06,25,07,43,18.30
2017,06,25,07,44,18.30
2017,06,25,07,45,18.30
2017,06,25,07,46,18.30
2017,06,25,07,47,18.30
2017,06,25,07,48,18.20
2017,06,25,07,49,18.20
2017,06,25,07,50,18.20
2017,06,25,07,51,18.20
2017,06,25,07,52,18.20
2017,06,25,07,53,18.20
2017,06,25,07,54,18.20
2017,06,25,07,55,18.10
2017,06,25,07,56,18.10
2017,06,25,07,57,18.10
2017,06,25,07,58,18.10
2017,06,25,07,59,18.10
2017,06,25,08,00,18.10
2017,06,25,08,01,18.10
2017,06,25,08,02,18.10
2017,06,25,08,03,18.10
2017,06,25,08,04,18.10
2017,06,25,08,05,18.20
2017,06,25,08,06,18.20
2017,06,25,08,07,18.20
2017,06,25,08,08,18.20
2017,06,25,08,09,18.30
2017,06,25,08,10,18.30
2017,06,25,08,11,18.30
2017,06,25,08,12,18.30
2017,06,25,08,13,18.30
2017,06,25,08,14,18.30
2017,06,25,08,15,18.30
2017,06,25,08,16,18.40
2017,06,25,08,17,18.40
2017,06,25,08,18,18.40
2017,06,25,08,19,18.40
2017,06,25,08,20,18.50
2017,06,25,08,21,18.50
2017,06,25,08,22,18.60
2017,06,25,08,23,18.60
2017,06,25,08,24,18.70
2017,06,25,08,25,18.70
2017,06,25,08,26,18.70
2017,06,25,08,27,18.80
2017,06,25,08,28,18.80
2017,06,25,08,29,18.80
2017,06,25,08,30,18.80
2017,06,25,08,31,18.80
2017,06,25,08,32,18.80
2017,06,25,08,33,18.80
2017,06,25,08,34,18.80
2017,06,25,08,35,18.80
2017,06,25,08,36,18.90
2017,06,25,08,37,18.90
2017,06,25,08,38,18.90
2017,06,25,08,39,18.90
2017,06,25,08,40,19.00
2017,06,25,08,41,19.00
2017,06,25,08,42,19.00
2017,06,25,08,43,19.10
2017,06,25,08,44,19.10
2017,06,25,08,45,19.10
2017,06,25,08,46,19.10
2017,06,25,08,47,19.20
2017,06,25,08,48,19.20
2017,06,25,08,49,19.20
2017,06,25,08,50,19.20
2017,06,25,08,51,19.20
2017,06,25,08,52,19.30
2017,06,25,08,53,19.30
2017,06,25,08,54,19.30
2017,06,25,08,55,19.30
2017,06,25,08,56,19.30
2017,06,25,08,57,19.30
2017,06,25,08,58,19.30
2017,06,25,08,59,19.30
2017,06,25,09,00,19.30
2017,06,25,09,01,19.30
2017,06,25,09,02,19.30
2017,06,25,09,03,19.30
2017,06,25,09,04,19.30
2017,06,25,09,05,19.30
2017,06,25,09,06,19.30
2017,06,25,09,07,19.30
2017,06,25,09,08,19.30
2017,06,25,09,09,19.30
2017,06,25,09,10,19.30
2017,06,25,09,11,19.40
2017,06,25,09,12,19.50
2017,06,25,09,13,19.50
2017,06,25,09,14,19.60
2017,06,25,09,15,19.70
2017,06,25,09,16,19.70
2017,06,25,09,17,19.80
2017,06,25,09,18,19.90
2017,06,25,09,19,20.00
2017,06,25,09,20,20.10
2017,06,25,09,21,20.10
2017,06,25,09,22,20.10
2017,06,25,09,23,20.10
2017,06,25,09,24,20.10
2017,06,25,09,25,20.10
2017,06,25,09,26,20.10
2017,06,25,09,27,20.10
2017,06,25,09,28,20.10
2017,06,25,09,29,20.10
2017,06,25,09,30,20.20
2017,06,25,09,31,20.20
2017,06,25,09,32,20.20
2017,06,25,09,33,20.20
2017,06,25,09,34,20.20
2017,06,25,09,35,20.20
2017,06,25,09,36,20.20
2017,06,25,09,37,20.20
2017,06,25,09,38,20.20
2017,06,25,09,39,20.20
2017,06,25,09,40,20.20
2017,06,25,09,41,20.20
2017,06,25,09,42,20.20
2017,06,25,09,43,20.20
2017,06,25,09,44,20.20
2017,06,25,09,45,20.30
2017,06,25,09,46,20.30
2017,06,25,09,47,20.40
2017,06,25,09,48,20.40
2017,06,25,09,49,20.50
2017,06,25,09,50,20.60
2017,06,25,09,51,20.70
2017,06,25,09,52,20.70
2017,06,25,09,53,20.80
2017,06,25,09,54,20.80
2017,06,25,09,55,20.90
2017,06,25,09,56,20.90
2017,06,25,09,57,21.00
2017,06,25,09,58,21.00
2017,06,25,09,59,21.10
2017,06,25,10,00,21.10
2017,06,25,10,01,21.20
2017,06,25,10,02,21.30
2017,06,25,10,03,21.40
2017,06,25,10,04,21.50
2017,06,25,10,05,21.50
2017,06,25,10,06,21.50
2017,06,25,10,07,21.50
2017,06,25,10,08,21.50
2017,06,25,10,09,21.50
2017,06,25,10,10,21.60
2017,06,25,10,11,21.60
2017,06,25,10,12,21.60
2017,06,25,10,13,21.60
2017,06,25,10,14,21.60
2017,06,25,10,15,21.60
2017,06,25,10,16,21.60
2017,06,25,10,17,21.70
2017,06,25,10,18,21.70
2017,06,25,10,19,21.80
2017,06,25,10,20,21.90
2017,06,25,10,21,22.00
2017,06,25,10,22,22.00
2017,06,25,10,23,22.10
2017,06,25,10,24,22.10
2017,06,25,10,25,22.20
2017,06,25,10,26,22.20
2017,06,25,10,27,22.30
2017,06,25,10,28,22.30
2017,06,25,10,29,22.40
2017,06,25,10,30,22.40
2017,06,25,10,31,22.50
2017,06,25,10,32,22.50
2017,06,25,10,33,22.60
2017,06,25,10,34,22.60
2017,06,25,10,35,22.60
2017,06,25,10,36,22.70
2017,06,25,10,37,22.80
2017,06,25,10,38,22.80
2017,06,25,10,39,22.90
2017,06,25,10,40,22.90
2017,06,25,10,41,22.90
2017,06,25,10,42,22.90
2017,06,25,10,43,22.80
2017,06,25,10,44,22.80
2017,06,25,10,45,22.80
2017,06,25,10,46,22.90
2017,06,25,10,47,22.90
2017,06,25,10,48,22.90
2017,06,25,10,49,22.90
2017,06,25,10,50,22.90
2017,06,25,10,51,22.90
2017,06,25,10,52,22.90
2017,06,25,10,53,22.90
2017,06,25,10,54,22.90
2017,06,25,10,55,22.80
2017,06,25,10,56,22.80
2017,06,25,10,57,22.80
2017,06,25,10,58,22.80
2017,06,25,10,59,22.80
2017,06,25,11,00,22.90
2017,06,25,11,01,22.90
2017,06,25,11,02,22.90
2017,06,25,11,03,22.90
2017,06,25,11,04,22.80
2017,06,25,11,05,22.80
2017,06,25,11,06,22.80
2017,06,25,11,07,22.80
2017,06,25,11,08,22.80
2017,06,25,11,09,22.80
2017,06,25,11,10,22.80
2017,06,25,11,11,22.80
2017,06,25,11,12,22.80
2017,06,25,11,13,22.70
2017,06,25,11,14,22.80
2017,06,25,11,15,22.80
2017,06,25,11,16,22.80
2017,06,25,11,17,22.90
2017,06,25,11,18,22.90
2017,06,25,11,19,22.90
2017,06,25,11,20,23.00
2017,06,25,11,21,23.00
2017,06,25,11,22,23.00
2017,06,25,11,23,23.00
2017,06,25,11,24,23.00
2017,06,25,11,25,23.10
2017,06,25,11,26,23.10
2017,06,25,11,27,23.10
2017,06,25,11,28,23.10
2017,06,25,11,29,23.20
2017,06,25,11,30,23.20
2017,06,25,11,31,23.20
2017,06,25,11,32,23.20
2017,06,25,11,33,23.30
2017,06,25,11,34,23.30
2017,06,25,11,35,23.30
2017,06,25,11,36,23.30
2017,06,25,11,37,23.30
2017,06,25,11,38,23.30
2017,06,25,11,39,23.40
2017,06,25,11,40,23.40
2017,06,25,11,41,23.40
2017,06,25,11,42,23.50
2017,06,25,11,43,23.50
2017,06,25,11,44,23.50
2017,06,25,11,45,23.60
2017,06,25,11,46,23.60
2017,06,25,11,47,23.60
2017,06,25,11,48,23.60
2017,06,25,11,49,23.70
2017,06,25,11,50,23.80
2017,06,25,11,51,23.90
2017,06,25,11,52,24.00
2017,06,25,11,53,24.10
2017,06,25,11,54,24.20
2017,06,25,11,55,24.30
2017,06,25,11,56,24.30
2017,06,25,11,57,24.40
2017,06,25,11,58,24.40
2017,06,25,11,59,24.40
2017,06,25,12,00,24.40
2017,06,25,12,01,24.40
2017,06,25,12,02,24.40
2017,06,25,12,03,24.30
2017,06,25,12,04,24.30
2017,06,25,12,05,24.30
2017,06,25,12,06,24.30
2017,06,25,12,07,24.30
2017,06,25,12,08,24.40
2017,06,25,12,09,24.50
2017,06,25,12,10,24.60
2017,06,25,12,11,24.50
2017,06,25,12,12,24.50
2017,06,25,12,13,24.50
2017,06,25,12,14,24.50
2017,06,25,12,15,24.50
2017,06,25,12,16,24.40
2017,06,25,12,17,24.40
2017,06,25,12,18,24.50
2017,06,25,12,19,24.50
2017,06,25,12,20,24.50
2017,06,25,12,21,24.50
2017,06,25,12,22,24.60
2017,06,25,12,23,24.60
2017,06,25,12,24,24.60
2017,06,25,12,25,24.60
2017,06,25,12,26,24.70
2017,06,25,12,27,24.70
2017,06,25,12,28,24.70
2017,06,25,12,29,24.70
2017,06,25,12,30,24.60
2017,06,25,12,31,24.60
2017,06,25,12,32,24.60
2017,06,25,12,33,24.60
2017,06,25,12,34,24.70
2017,06,25,12,35,24.70
2017,06,25,12,36,24.70
2017,06,25,12,37,24.80
2017,06,25,12,38,24.80
2017,06,25,12,39,24.90
2017,06,25,12,40,25.00
2017,06,25,12,41,25.10
2017,06,25,12,42,25.10
2017,06,25,12,43,25.20
2017,06,25,12,44,25.20
2017,06,25,12,45,25.30
2017,06,25,12,46,25.30
2017,06,25,12,47,25.40
2017,06,25,12,48,25.40
2017,06,25,12,49,25.40
2017,06,25,12,50,25.50
2017,06,25,12,51,25.60
2017,06,25,12,52,25.70
2017,06,25,12,53,25.90
2017,06,25,12,54,26.00
2017,06,25,12,55,26.10
2017,06,25,12,56,26.20
2017,06,25,12,57,26.20
2017,06,25,12,58,26.20
2017,06,25,12,59,26.20
2017,06,25,13,00,26.20
2017,06,25,13,01,26.10
2017,06,25,13,02,26.10
2017,06,25,13,03,26.10
2017,06,25,13,04,26.00
2017,06,25,13,05,25.90
2017,06,25,13,06,25.90
2017,06,25,13,07,25.80
2017,06,25,13,08,25.80
2017,06,25,13,09,25.70
2017,06,25,13,10,25.80
2017,06,25,13,11,25.90
2017,06,25,13,12,26.10
2017,06,25,13,13,26.10
2017,06,25,13,14,26.10
2017,06,25,13,15,26.10
2017,06,25,13,16,26.10
2017,06,25,13,17,26.10
2017,06,25,13,18,26.10
2017,06,25,13,19,26.20
2017,06,25,13,20,26.20
2017,06,25,13,21,26.20
2017,06,25,13,22,26.20
2017,06,25,13,23,26.20
2017,06,25,13,24,26.30
2017,06,25,13,25,26.30
2017,06,25,13,26,26.40
2017,06,25,13,27,26.40
2017,06,25,13,28,26.40
2017,06,25,13,29,26.40
2017,06,25,13,30,26.50
2017,06,25,13,31,26.50
2017,06,25,13,32,26.50
2017,06,25,13,33,26.60
2017,06,25,13,34,26.60
2017,06,25,13,35,26.60
2017,06,25,13,36,26.70
2017,06,25,13,37,26.80
2017,06,25,13,38,26.90
2017,06,25,13,39,26.90
2017,06,25,13,40,26.90
2017,06,25,13,41,26.90
2017,06,25,13,42,26.90
2017,06,25,13,43,26.90
2017,06,25,13,44,26.90
2017,06,25,13,45,26.90
2017,06,25,13,46,26.90
2017,06,25,13,47,26.90
2017,06,25,13,48,26.90
2017,06,25,13,49,26.90
2017,06,25,13,50,27.00
2017,06,25,13,51,27.10
2017,06,25,13,52,27.10
2017,06,25,13,53,27.20
2017,06,25,13,54,27.20
2017,06,25,13,55,27.20
2017,06,25,13,56,27.30
2017,06,25,13,57,27.30
2017,06,25,13,58,27.30
2017,06,25,13,59,27.40
2017,06,25,14,00,27.40
2017,06,25,14,01,27.40
2017,06,25,14,02,27.50
2017,06,25,14,03,27.50
2017,06,25,14,04,27.60
2017,06,25,14,05,27.70
2017,06,25,14,06,27.70
2017,06,25,14,07,27.70
2017,06,25,14,08,27.60
2017,06,25,14,09,27.50
2017,06,25,14,10,27.50
2017,06,25,14,11,27.50
2017,06,25,14,12,27.40
2017,06,25,14,13,27.40
2017,06,25,14,14,27.50
2017,06,25,14,15,27.50
2017,06,25,14,16,27.60
2017,06,25,14,17,27.60
2017,06,25,14,18,27.50
2017,06,25,14,19,27.50
2017,06,25,14,20,27.50
2017,06,25,14,21,27.50
2017,06,25,14,22,27.50
2017,06,25,14,23,27.60
2017,06,25,14,24,27.60
2017,06,25,14,25,27.60
2017,06,25,14,26,27.50
2017,06,25,14,27,27.40
2017,06,25,14,28,27.40
2017,06,25,14,29,27.40
2017,06,25,14,30,27.40
2017,06,25,14,31,27.30
2017,06,25,14,32,27.30
2017,06,25,14,33,27.40
2017,06,25,14,34,27.50
2017,06,25,14,35,27.60
2017,06,25,14,36,27.70
2017,06,25,14,37,27.70
2017,06,25,14,38,27.70
2017,06,25,14,39,27.80
2017,06,25,14,40,27.80
2017,06,25,14,41,27.70
2017,06,25,14,42,27.70
2017,06,25,14,43,27.60
2017,06,25,14,44,27.50
2017,06,25,14,45,27.40
2017,06,25,14,46,27.40
2017,06,25,14,47,27.40
2017,06,25,14,48,27.40
2017,06,25,14,49,27.40
2017,06,25,14,50,27.30
2017,06,25,14,51,27.30
2017,06,25,14,52,27.30
2017,06,25,14,53,27.30
2017,06,25,14,54,27.30
2017,06,25,14,55,27.30
2017,06,25,14,56,27.20
2017,06,25,14,57,27.20
2017,06,25,14,58,27.20
2017,06,25,14,59,27.20
2017,06,25,15,00,27.20
2017,06,25,15,01,27.20
2017,06,25,15,02,27.20
2017,06,25,15,03,27.20
2017,06,25,15,04,27.30
2017,06,25,15,05,27.40
2017,06,25,15,06,27.40
2017,06,25,15,07,27.50
2017,06,25,15,08,27.60
2017,06,25,15,09,27.60
2017,06,25,15,10,27.70
2017,06,25,15,11,27.70
2017,06,25,15,12,27.70
2017,06,25,15,13,27.80
2017,06,25,15,14,27.80
2017,06,25,15,15,27.80
2017,06,25,15,16,27.70
2017,06,25,15,17,27.70
2017,06,25,15,18,27.60
2017,06,25,15,19,27.60
2017,06,25,15,20,27.60
2017,06,25,15,21,27.60
2017,06,25,15,22,27.60
2017,06,25,15,23,27.70
2017,06,25,15,24,27.70
2017,06,25,15,25,27.70
2017,06,25,15,26,27.80
2017,06,25,15,27,27.90
2017,06,25,15,28,27.90
2017,06,25,15,29,28.00
2017,06,25,15,30,28.00
2017,06,25,15,31,27.90
2017,06,25,15,32,27.80
2017,06,25,15,33,27.70
2017,06,25,15,34,27.70
2017,06,25,15,35,27.60
2017,06,25,15,36,27.50
2017,06,25,15,37,27.40
2017,06,25,15,38,27.40
2017,06,25,15,39,27.30
2017,06,25,15,40,27.30
2017,06,25,15,41,27.30
2017,06,25,15,42,27.30
2017,06,25,15,43,27.30
2017,06,25,15,44,27.30
2017,06,25,15,45,27.30
2017,06,25,15,46,27.30
2017,06,25,15,47,27.30
2017,06,25,15,48,27.30
2017,06,25,15,49,27.30
2017,06,25,15,50,27.20
2017,06,25,15,51,27.10
2017,06,25,15,52,27.00
2017,06,25,15,53,26.90
2017,06,25,15,54,26.90
2017,06,25,15,55,26.80
2017,06,25,15,56,26.70
2017,06,25,15,57,26.60
2017,06,25,15,58,26.50
2017,06,25,15,59,26.50
2017,06,25,16,00,26.40
2017,06,25,16,01,26.30
2017,06,25,16,02,26.30
2017,06,25,16,03,26.30
2017,06,25,16,04,26.30
2017,06,25,16,05,26.20
2017,06,25,16,06,26.20
2017,06,25,16,07,26.10
2017,06,25,16,08,26.10
2017,06,25,16,09,26.00
2017,06,25,16,10,26.00
2017,06,25,16,11,26.00
2017,06,25,16,12,26.00
2017,06,25,16,13,26.00
2017,06,25,16,14,26.10
2017,06,25,16,15,26.10
2017,06,25,16,16,26.20
2017,06,25,16,17,26.20
2017,06,25,16,18,26.30
2017,06,25,16,19,26.30
2017,06,25,16,20,26.40
2017,06,25,16,21,26.50
2017,06,25,16,22,26.60
2017,06,25,16,23,26.60
2017,06,25,16,24,26.60
2017,06,25,16,25,26.60
2017,06,25,16,26,26.70
2017,06,25,16,27,26.70
2017,06,25,16,28,26.60
2017,06,25,16,29,26.60
2017,06,25,16,30,26.60
2017,06,25,16,31,26.60
2017,06,25,16,32,26.60
2017,06,25,16,33,26.70
2017,06,25,16,34,26.70
2017,06,25,16,35,26.70
2017,06,25,16,36,26.80
2017,06,25,16,37,26.80
2017,06,25,16,38,26.80
2017,06,25,16,39,26.80
2017,06,25,16,40,26.90
2017,06,25,16,41,26.90
2017,06,25,16,42,26.90
2017,06,25,16,43,26.90
2017,06,25,16,44,27.00
2017,06,25,16,45,27.00
2017,06,25,16,46,27.00
2017,06,25,16,47,27.00
2017,06,25,16,48,27.00
2017,06,25,16,49,26.90
2017,06,25,16,50,26.90
2017,06,25,16,51,26.80
2017,06,25,16,52,26.80
2017,06,25,16,53,26.80
2017,06,25,16,54,26.70
2017,06,25,16,55,26.70
2017,06,25,16,56,26.70
2017,06,25,16,57,26.80
2017,06,25,16,58,26.80
2017,06,25,16,59,26.80
2017,06,25,17,00,26.80
2017,06,25,17,01,26.90
2017,06,25,17,02,26.90
2017,06,25,17,03,26.90
2017,06,25,17,04,27.00
2017,06,25,17,05,27.00
2017,06,25,17,06,27.00
2017,06,25,17,07,27.00
2017,06,25,17,08,26.90
2017,06,25,17,09,26.90
2017,06,25,17,10,26.90
2017,06,25,17,11,26.80
2017,06,25,17,12,26.80
2017,06,25,17,13,26.70
2017,06,25,17,14,26.70
2017,06,25,17,15,26.60
2017,06,25,17,16,26.60
2017,06,25,17,17,26.50
2017,06,25,17,18,26.50
2017,06,25,17,19,26.40